Tracking 28081 objects as of 27-Sep-2023
HD Live streaming from Space Station
objects crossing your sky now

STARLINK-5477

Track STARLINK-5477 now!
10-day predictions
STARLINK-5477 is classified as:


NORAD ID: 55659
Int'l Code: 2023-021AH
Perigee: 577.0 km
Apogee: 581.5 km
Inclination: 70.0 °
Period: 96.1 minutes
Semi major axis: 6950 km
RCS: Unknown
Launch date: February 17, 2023
Source: United States (US)
Launch site: AIR FORCE WESTERN TEST RANGE (AFWTR)
Your satellite tracking list
Your tracking list is empty




NASA's NSSDC Master Catalog

Two Line Element Set (TLE):
1 55659U 23021AH  23270.38965932 -.00002802  00000-0 -22726-3 0  9993
2 55659  69.9989 259.4358 0003221 269.6900  90.3890 14.98313038 35027
Source of the keplerian elements: AFSPC